TimeAST,TemperatureF,Dew PointF,Humidity,Sea Level PressureIn,VisibilityMPH,Wind Direction,Wind SpeedMPH,Gust SpeedMPH,PrecipitationIn,Events,Conditions,WindDirDegrees,DateUTC
12:56 AM,82.9,73.9,74,29.95,10.0,Calm,Calm,-,N/A,,Scattered Clouds,0,2012-09-08 04:56:00
1:56 AM,82.9,75.0,77,29.94,10.0,WSW,3.5,-,N/A,,Scattered Clouds,240,2012-09-08 05:56:00
2:56 AM,82.0,75.0,79,29.92,10.0,Calm,Calm,-,N/A,,Scattered Clouds,0,2012-09-08 06:56:00
3:56 AM,81.0,73.9,79,29.92,10.0,Calm,Calm,-,N/A,,Scattered Clouds,0,2012-09-08 07:56:00
4:56 AM,81.0,73.9,79,29.93,10.0,Calm,Calm,-,N/A,,Clear,0,2012-09-08 08:56:00
5:56 AM,80.1,73.9,81,29.95,10.0,South,4.6,-,N/A,,Partly Cloudy,170,2012-09-08 09:56:00
6:56 AM,81.0,73.9,79,29.97,9.0,Calm,Calm,-,N/A,,Partly Cloudy,0,2012-09-08 10:56:00
7:56 AM,82.9,73.9,74,29.99,9.0,Calm,Calm,-,0.01,,Scattered Clouds,0,2012-09-08 11:56:00
8:56 AM,86.0,73.9,67,30.00,9.0,Calm,Calm,-,N/A,,Scattered Clouds,0,2012-09-08 12:56:00
9:56 AM,89.1,72.0,57,30.01,10.0,Calm,Calm,-,N/A,,Scattered Clouds,0,2012-09-08 13:56:00
10:56 AM,89.1,75.0,63,30.01,10.0,NNE,9.2,-,N/A,,Scattered Clouds,20,2012-09-08 14:56:00
11:56 AM,89.1,75.0,63,29.99,10.0,North,11.5,-,N/A,,Scattered Clouds,10,2012-09-08 15:56:00
12:56 PM,90.0,73.0,57,29.97,10.0,NNE,11.5,-,N/A,,Scattered Clouds,30,2012-09-08 16:56:00
1:56 PM,89.1,73.9,61,29.95,10.0,NE,12.7,-,N/A,,Scattered Clouds,40,2012-09-08 17:56:00
2:56 PM,88.0,73.9,63,29.94,10.0,North,12.7,-,N/A,,Scattered Clouds,10,2012-09-08 18:56:00
3:56 PM,88.0,73.9,63,29.94,10.0,North,10.4,21.9,N/A,,Scattered Clouds,10,2012-09-08 19:56:00
4:56 PM,87.1,73.9,65,29.94,10.0,North,11.5,-,N/A,,Scattered Clouds,10,2012-09-08 20:56:00
5:56 PM,86.0,75.0,70,29.96,10.0,North,11.5,-,N/A,,Scattered Clouds,10,2012-09-08 21:56:00
6:56 PM,86.0,73.9,67,29.97,10.0,NNE,10.4,17.3,N/A,,Mostly Cloudy,20,2012-09-08 22:56:00
7:56 PM,86.0,73.0,65,29.99,10.0,NNE,10.4,-,N/A,,Mostly Cloudy,30,2012-09-08 23:56:00
8:56 PM,84.9,73.0,67,30.01,10.0,ESE,5.8,-,N/A,,Mostly Cloudy,110,2012-09-09 00:56:00
9:56 PM,84.9,72.0,65,30.03,10.0,South,3.5,-,N/A,,Scattered Clouds,180,2012-09-09 01:56:00
10:56 PM,84.0,73.0,69,30.03,10.0,South,3.5,-,N/A,,Partly Cloudy,190,2012-09-09 02:56:00
11:56 PM,82.0,73.0,74,30.02,10.0,South,3.5,-,N/A,,Partly Cloudy,170,2012-09-09 03:56:00